GW0774 Weather Reports


time (UTC)temp
F
wind
direction
speed
knots
gust
knots
rain 1hr
in
rain 24hr
in
rain mn
in
humidity
%
barometer
mb
20260905175041 51 88 0.0 2.6 0.00 0.02 0.00 91 1012.2
20260905174556 51 88 0.0 2.6 0.00 0.02 0.00 91 1012.2
20260905174039 51 89 0.0 1.7 0.00 0.02 0.00 91 1012.0
20260905173542 52 92 0.0 3.5 0.00 0.02 0.00 91 1012.0
20260905173056 52 92 0.0 5.2 0.00 0.02 0.00 91 1011.9
20260905172539 52 78 0.9 5.2 0.00 0.02 0.00 91 1012.0
20260905172039 52 68 0.9 5.2 0.00 0.02 0.00 92 1012.0
20260905171553 52 278 0.9 7.8 0.00 0.02 0.00 92 1012.0
20260905171039 52 267 1.7 9.6 0.00 0.02 0.00 92 1012.0
20260905170539 52 294 3.5 9.6 0.00 0.02 0.00 93 1011.9
20260905170050 52 248 1.7 5.2 0.00 0.02 0.00 92 1011.8
20260905165542 52 261 0.0 3.5 0.00 0.02 0.00 92 1011.7
20260905165039 52 205 0.9 3.5 0.00 0.02 0.00 93 1011.8
20260905164559 52 266 0.0 3.5 0.00 0.02 0.00 92 1011.8
20260905164043 52 0 0.0 3.5 0.00 0.02 0.00 92 1011.6
20260905163536 52 0 0.0 3.5 0.00 0.02 0.00 92 1011.6
20260905163054 52 82 0.9 3.5 0.00 0.02 0.00 92 1011.5
20260905162540 52 258 0.9 3.5 0.00 0.02 0.00 92 1011.6
20260905162038 52 0 0.0 2.6 0.00 0.02 0.00 92 1011.5
20260905161553 52 0 0.0 5.2 0.00 0.02 0.00 92 1011.6
20260905161036 52 0 0.9 5.2 0.00 0.02 0.00 92 1011.5
20260905160539 52 92 0.9 6.1 0.00 0.02 0.00 92 1011.6
20260905160115 53 68 0.0 6.1 0.00 0.02 0.00 92 1011.6
20260905155539 53 260 0.9 6.1 0.00 0.02 0.00 92 1011.5
20260905155041 53 32 0.9 7.8 0.00 0.02 0.00 92 1011.6
20260905154602 53 275 3.5 7.8 0.00 0.02 0.00 92 1011.6
20260905154040 53 0 1.7 7.8 0.00 0.02 0.00 92 1011.7
20260905153540 53 271 1.7 7.8 0.00 0.02 0.00 92 1011.7
20260905153053 53 236 0.9 4.3 0.00 0.02 0.00 92 1011.8
20260905152539 53 236 1.7 5.2 0.00 0.02 0.00 92 1011.9
20260905152037 53 236 0.9 5.2 0.00 0.02 0.00 92 1012.1
20260905151601 53 240 0.0 2.6 0.00 0.02 0.00 92 1012.0
20260905151039 53 240 0.9 2.6 0.00 0.02 0.00 91 1012.0
20260905150539 53 219 0.0 1.7 0.00 0.02 0.00 91 1012.0
20260905150048 54 0 0.0 3.5 0.00 0.02 0.00 92 1012.1
20260905145540 54 0 0.0 4.3 0.00 0.02 0.00 92 1012.1
20260905145039 54 60 0.0 4.3 0.00 0.02 0.00 92 1012.2
20260905144553 54 257 0.9 4.3 0.00 0.02 0.00 92 1012.2
20260905144041 54 0 0.0 2.6 0.00 0.02 0.00 92 1012.4
20260905143539 54 79 0.0 3.5 0.00 0.02 0.00 92 1012.4
20260905143056 54 78 0.9 3.5 0.00 0.02 0.00 92 1012.7
20260905142542 53 108 0.0 4.3 0.00 0.02 0.00 91 1012.7
20260905142036 54 153 0.0 4.3 0.00 0.02 0.00 91 1012.7
20260905141551 54 67 0.0 4.3 0.00 0.02 0.00 91 1012.8
20260905141035 54 81 1.7 5.2 0.00 0.02 0.00 91 1012.7
20260905140542 54 273 0.9 6.1 0.00 0.02 0.00 92 1012.8
20260905140046 54 52 1.7 6.1 0.00 0.02 0.00 92 1012.8
20260905135537 54 275 0.9 6.1 0.00 0.02 0.00 92 1012.8
20260905135040 54 273 2.6 6.1 0.00 0.02 0.00 92 1012.7
20260905134605 54 263 1.7 6.1 0.00 0.02 0.00 91 1012.9
20260905134052 54 283 1.7 6.1 0.00 0.02 0.00 91 1012.9
20260905133539 54 270 1.7 7.8 0.00 0.02 0.00 90 1012.9
20260905133052 54 257 0.9 11.3 0.00 0.02 0.00 91 1013.0
20260905132539 54 290 2.6 11.3 0.00 0.02 0.00 91 1013.0
20260905132039 54 273 4.3 9.6 0.00 0.02 0.00 91 1013.1
20260905131557 54 265 3.5 8.7 0.00 0.02 0.00 90 1012.9
20260905131039 54 252 2.6 7.0 0.00 0.02 0.00 90 1012.9
20260905130540 54 278 2.6 7.0 0.00 0.02 0.00 90 1012.9
20260905130059 54 270 3.5 7.8 0.00 0.02 0.00 90 1012.9
20260905125538 54 293 4.3 7.8 0.00 0.02 0.00 91 1012.9
20260905125040 54 294 5.2 7.8 0.00 0.02 0.00 91 1012.8
20260905124558 53 283 3.5 7.0 0.00 0.02 0.00 91 1013.0
20260905124039 53 278 1.7 5.2 0.00 0.02 0.00 90 1013.1
20260905123539 53 278 0.9 1.7 0.00 0.02 0.00 89 1013.1
20260905123054 53 278 0.0 1.7 0.00 0.02 0.00 89 1013.1
20260905122540 54 278 1.7 3.5 0.00 0.02 0.00 89 1013.1
20260905122038 54 278 0.9 3.5 0.00 0.02 0.00 89 1013.0
20260905121601 54 278 0.0 3.5 0.00 0.02 0.00 89 1013.0
20260905121040 54 278 0.0 3.5 0.00 0.02 0.00 89 1013.0
20260905120539 54 278 0.0 7.0 0.00 0.02 0.00 89 1013.3
20260905120115 55 278 0.9 7.8 0.00 0.02 0.00 89 1013.3
20260905115539 55 32 3.5 10.4 0.00 0.02 0.02 89 1013.2
20260905115039 55 271 5.2 12.2 0.00 0.02 0.02 89 1013.2
20260905114555 55 244 6.1 12.2 0.00 0.02 0.02 90 1013.1
20260905114039 55 282 7.0 12.2 0.00 0.02 0.02 90 1013.1
20260905113540 54 257 6.1 10.4 0.00 0.02 0.02 90 1013.0
20260905113050 54 286 5.2 10.4 0.00 0.02 0.02 90 1012.9
20260905112541 53 236 2.6 7.8 0.00 0.02 0.02 89 1012.9
20260905112039 53 67 2.6 7.8 0.00 0.02 0.02 89 1012.8
20260905111611 54 248 0.9 7.8 0.00 0.02 0.02 89 1012.8
20260905111039 53 30 2.6 7.8 0.00 0.02 0.02 89 1013.0
20260905110539 53 268 2.6 7.8 0.00 0.02 0.02 89 1013.2
20260905110100 53 297 1.7 7.0 0.00 0.02 0.02 88 1013.1
20260905105536 54 253 3.5 7.0 0.00 0.02 0.02 88 1013.2
20260905105039 54 289 3.5 15.6 0.00 0.02 0.02 88 1013.3
20260905104553 54 55 6.1 21.7 0.00 0.02 0.02 88 1012.9
20260905104040 54 267 12.2 21.7 0.00 0.02 0.02 88 1012.8
20260905103539 54 275 11.3 16.5 0.00 0.02 0.02 87 1012.9
20260905103053 54 294 7.8 16.5 0.00 0.02 0.02 87 1013.1
20260905102539 54 271 9.6 16.5 0.00 0.02 0.02 86 1013.4
20260905102039 55 244 5.2 16.5 0.00 0.02 0.02 86 1013.6
20260905101547 55 249 8.7 16.5 0.00 0.02 0.02 85 1013.5
20260905101039 55 279 9.6 15.6 0.00 0.02 0.02 85 1013.2
20260905100539 54 278 8.7 15.6 0.00 0.02 0.02 85 1013.1
20260905100059 54 273 8.7 16.5 0.00 0.02 0.02 86 1013.1
20260905095539 54 296 8.7 16.5 0.00 0.02 0.02 87 1013.0
20260905095039 54 265 7.8 13.0 0.00 0.02 0.02 87 1013.0
20260905094558 54 275 7.0 10.4 0.00 0.02 0.02 87 1013.2
20260905094037 54 284 6.1 10.4 0.00 0.02 0.02 86 1013.1
20260905093540 54 273 5.2 11.3 0.00 0.02 0.02 86 1013.3
20260905093050 54 312 6.1 11.3 0.00 0.02 0.02 86 1013.2
20260905092544 53 44 5.2 10.4 0.00 0.02 0.02 87 1013.2
20260905092039 53 263 5.2 12.2 0.00 0.02 0.02 88 1013.1
20260905091621 53 266 5.2 12.2 0.00 0.02 0.02 88 1012.7
20260905091040 53 293 4.3 12.2 0.00 0.02 0.02 89 1012.4
20260905090539 53 271 3.5 8.7 0.00 0.02 0.02 89 1012.2
20260905090118 53 248 2.6 9.6 0.00 0.02 0.02 89 1012.3
20260905085540 53 289 5.2 11.3 0.00 0.02 0.02 89 1012.3
20260905085039 53 257 6.1 16.5 0.00 0.02 0.02 89 1012.5
20260905084605 53 276 9.6 18.2 0.00 0.02 0.02 89 1012.1
20260905084040 53 309 11.3 20.9 0.00 0.02 0.02 89 1012.5
20260905083540 53 268 11.3 20.9 0.00 0.02 0.02 90 1012.7
20260905083050 53 297 11.3 20.9 0.00 0.02 0.02 90 1013.0
20260905082540 53 270 9.6 16.5 0.00 0.02 0.02 90 1013.2
20260905082040 54 298 10.4 16.5 0.00 0.02 0.02 90 1013.6
20260905081546 54 275 10.4 15.6 0.00 0.02 0.02 90 1013.9
20260905081039 53 288 7.8 14.8 0.00 0.02 0.02 91 1013.9
20260905080543 54 263 9.6 15.6 0.00 0.02 0.02 90 1014.0
20260905080101 54 283 9.6 15.6 0.00 0.02 0.02 90 1013.9
20260905075540 54 279 9.6 15.6 0.00 0.02 0.02 89 1013.9
20260905075040 54 267 8.7 15.6 0.00 0.02 0.02 87 1014.0
20260905074551 54 272 11.3 17.4 0.00 0.02 0.02 86 1013.8
20260905074040 54 301 11.3 17.4 0.00 0.02 0.02 86 1013.6
20260905073552 54 260 10.4 17.4 0.00 0.02 0.02 86 1013.5
20260905073055 54 269 11.3 17.4 0.00 0.02 0.02 85 1013.4
20260905072540 55 288 10.4 15.6 0.00 0.02 0.02 84 1013.2
20260905072041 55 264 7.8 21.7 0.00 0.02 0.02 83 1013.3
20260905071558 55 295 10.4 21.7 0.00 0.02 0.02 83 1013.3
20260905071043 55 308 12.2 20.0 0.00 0.02 0.02 83 1013.1
20260905070539 54 273 11.3 20.0 0.00 0.02 0.02 84 1013.0
20260905070101 55 248 10.4 23.5 0.00 0.02 0.02 83 1012.9
20260905065541 55 232 10.4 23.5 0.00 0.02 0.02 82 1012.8
20260905065039 55 311 13.0 21.7 0.00 0.02 0.02 81 1012.5
20260905064550 55 300 13.0 21.7 0.00 0.02 0.02 81 1012.4
20260905064038 55 293 14.8 21.7 0.00 0.02 0.02 80 1012.4
20260905063539 55 319 13.0 26.1 0.00 0.02 0.02 81 1012.3
20260905063048 55 292 11.3 26.1 0.00 0.02 0.02 82 1012.5
20260905062538 55 284 13.9 26.1 0.00 0.02 0.02 82 1012.5
20260905062039 54 281 10.4 22.6 0.00 0.02 0.02 83 1012.5
20260905061619 55 238 10.4 22.6 0.00 0.02 0.02 83 1012.6
20260905061039 55 280 12.2 22.6 0.00 0.02 0.02 83 1012.4
20260905060539 55 245 13.0 23.5 0.00 0.02 0.02 83 1012.4
20260905060112 55 260 12.2 23.5 0.00 0.02 0.02 83 1012.3
20260905055539 55 289 10.4 23.5 0.00 0.02 0.02 83 1012.4
20260905055039 55 275 11.3 24.3 0.00 0.02 0.02 83 1012.4
20260905054555 55 306 13.0 24.3 0.00 0.02 0.02 84 1012.4
20260905054039 55 264 13.9 27.8 0.00 0.02 0.02 84 1012.5
20260905053539 55 277 13.0 27.8 0.00 0.02 0.02 84 1012.3
20260905053048 55 288 12.2 21.7 0.00 0.02 0.02 84 1012.2
20260905052543 55 313 12.2 22.6 0.00 0.02 0.02 83 1012.2
20260905052040 55 240 10.4 22.6 0.00 0.02 0.02 83 1012.3
20260905051548 55 269 12.2 22.6 0.00 0.02 0.02 82 1012.3
20260905051038 55 295 12.2 21.7 0.00 0.02 0.02 82 1012.3
20260905050539 55 255 13.9 21.7 0.00 0.02 0.02 81 1012.4
20260905050059 56 317 10.4 17.4 0.00 0.02 0.02 80 1012.4
20260905045538 56 253 10.4 20.9 0.00 0.02 0.02 79 1012.4
20260905045038 56 277 9.6 20.9 0.00 0.02 0.02 78 1012.4
20260905044556 56 287 7.8 20.9 0.00 0.02 0.02 78 1012.5
20260905044039 56 270 11.3 23.5 0.00 0.02 0.02 77 1012.4
20260905043539 57 262 12.2 25.2 0.00 0.02 0.02 78 1012.3
20260905043049 57 306 11.3 27.8 0.00 0.02 0.02 78 1012.2
20260905042539 57 273 14.8 27.8 0.00 0.02 0.02 77 1012.3
20260905042039 57 277 13.9 23.5 0.00 0.02 0.02 78 1012.3
20260905041603 57 313 12.2 21.7 0.00 0.02 0.02 79 1012.4
20260905041039 58 318 10.4 25.2 0.00 0.02 0.02 80 1012.7
20260905040540 58 289 10.4 25.2 0.00 0.02 0.02 81 1013.0
20260905040057 57 307 11.3 25.2 0.00 0.02 0.02 81 1012.9
20260905035539 56 295 10.4 22.6 0.00 0.02 0.02 82 1013.0
20260905035039 56 263 11.3 22.6 0.00 0.02 0.02 82 1013.0
20260905034602 56 296 9.6 17.4 0.00 0.02 0.02 82 1012.9
20260905034043 56 290 8.7 17.4 0.00 0.02 0.02 83 1012.9
20260905033620 56 290 9.6 20.9 0.00 0.02 0.02 82 1012.9
20260905033047 56 271 12.2 20.9 0.00 0.02 0.02 82 1012.9
20260905032541 56 263 10.4 20.9 0.00 0.02 0.02 83 1013.0
20260905032038 57 288 10.4 20.9 0.00 0.02 0.02 82 1013.1
20260905031559 57 270 8.7 19.1 0.01 0.02 0.02 83 1013.1
20260905031039 57 250 11.3 18.2 0.01 0.02 0.02 84 1013.2
20260905030538 56 258 9.6 17.4 0.01 0.02 0.02 86 1013.2
20260905030054 56 300 8.7 16.5 0.01 0.02 0.02 88 1013.3
20260905025538 55 247 7.0 13.9 0.02 0.02 0.02 87 1013.4
20260905025040 55 245 8.7 13.9 0.02 0.02 0.02 88 1013.5
20260905024600 55 244 7.8 14.8 0.02 0.02 0.02 89 1013.6
20260905024039 55 236 9.6 14.8 0.02 0.02 0.02 90 1013.7
20260905023539 54 234 9.6 15.6 0.02 0.02 0.02 91 1013.8
20260905023104 54 250 7.8 15.6 0.02 0.02 0.02 90 1013.8
20260905022538 54 260 10.4 23.5 0.02 0.02 0.02 89 1013.7
20260905022039 56 252 12.2 27.8 0.02 0.02 0.02 85 1013.7
20260905021557 57 304 13.0 27.8 0.00 0.00 0.00 81 1013.5
20260905021038 57 251 13.0 26.9 0.00 0.00 0.00 81 1013.5
20260905020542 57 273 10.4 25.2 0.00 0.00 0.00 86 1013.3
20260905020055 56 261 12.2 25.2 0.00 0.00 0.00 83 1013.6
20260905015539 57 267 13.0 25.2 0.00 0.00 0.00 80 1013.8
20260905015042 58 243 8.7 25.2 0.00 0.00 0.00 78 1013.8
20260905014554 58 252 12.2 25.2 0.00 0.00 0.00 76 1013.7
20260905014039 58 239 10.4 23.5 0.00 0.00 0.00 79 1013.8
20260905013539 59 273 9.6 23.5 0.00 0.00 0.00 78 1013.8
20260905013050 59 271 10.4 20.9 0.00 0.00 0.00 79 1013.9
20260905012540 58 281 13.0 20.9 0.00 0.00 0.00 78 1014.0
20260905012041 59 231 9.6 17.4 0.00 0.00 0.00 78 1013.9
20260905011549 58 265 10.4 20.9 0.00 0.00 0.00 79 1014.0
20260905011039 59 298 10.4 20.9 0.00 0.00 0.00 76 1014.1
20260905010539 59 292 10.4 19.1 0.00 0.00 0.00 78 1014.1
20260905010057 59 240 10.4 23.5 0.00 0.00 0.00 77 1014.0
20260905005539 59 279 10.4 23.5 0.00 0.00 0.00 78 1014.1
20260905005039 59 285 12.2 23.5 0.00 0.00 0.00 76 1014.2
20260905004557 59 319 10.4 19.1 0.00 0.00 0.00 78 1014.5
20260905004039 58 317 10.4 19.1 0.00 0.00 0.00 77 1014.7
20260905003539 58 317 10.4 19.1 0.00 0.00 0.00 76 1014.7
20260905003051 58 292 11.3 19.1 0.00 0.00 0.00 77 1014.7
20260905002539 58 259 9.6 20.9 0.00 0.00 0.00 78 1014.7
20260905002039 58 314 8.7 20.9 0.00 0.00 0.00 79 1014.7
20260905001606 57 246 7.0 17.4 0.00 0.00 0.00 81 1015.0
20260905001038 57 291 7.8 17.4 0.00 0.00 0.00 79 1015.0
20260905000539 57 236 8.7 17.4 0.00 0.00 0.00 79 1015.2
20260905000112 57 235 8.7 14.8 0.00 0.00 0.00 79 1015.3
20260904235541 57 294 7.0 13.9 0.00 0.00 0.00 80 1015.4
20260904235038 57 271 8.7 14.8 0.00 0.00 0.00 78 1015.3
20260904234557 57 272 9.6 16.5 0.00 0.00 0.00 76 1015.3
20260904234039 57 257 8.7 18.2 0.00 0.00 0.00 79 1015.3
20260904233539 57 254 9.6 18.2 0.00 0.00 0.00 77 1015.3
20260904233109 57 265 10.4 18.2 0.00 0.00 0.00 75 1015.3
20260904232538 57 263 9.6 16.5 0.00 0.00 0.00 78 1015.2
20260904232040 57 274 7.8 13.9 0.00 0.00 0.00 78 1015.3
20260904231555 57 255 7.0 13.0 0.00 0.00 0.00 79 1015.3
20260904231039 57 232 7.8 13.9 0.00 0.00 0.00 78 1015.3
20260904230539 57 252 7.8 13.9 0.00 0.00 0.00 78 1015.3
20260904230105 57 267 7.0 15.6 0.00 0.00 0.00 80 1015.3
20260904225539 57 244 7.0 15.6 0.00 0.03 0.00 79 1015.4
20260904225038 58 270 7.0 15.6 0.00 0.03 0.00 79 1015.2
20260904224601 58 243 7.8 15.6 0.00 0.03 0.00 78 1015.3
20260904224039 58 250 9.6 15.6 0.00 0.03 0.00 79 1015.4
20260904223539 57 273 9.6 15.6 0.00 0.03 0.00 79 1015.3
20260904223114 57 34 7.8 15.6 0.00 0.03 0.00 79 1015.2
20260904222539 57 252 8.7 15.6 0.00 0.03 0.00 77 1015.1
20260904222039 58 284 8.7 14.8 0.00 0.03 0.00 79 1015.1
20260904221548 57 305 8.7 14.8 0.00 0.03 0.00 78 1015.1
20260904221039 58 247 6.1 14.8 0.00 0.03 0.00 79 1015.1
20260904220539 57 244 7.8 16.5 0.00 0.03 0.00 77 1014.9
20260904220058 57 276 10.4 16.5 0.00 0.03 0.00 75 1015.0
20260904215539 57 250 8.7 16.5 0.00 0.03 0.00 75 1015.0
20260904215041 57 237 10.4 16.5 0.00 0.03 0.00 76 1014.8
20260904214555 57 293 9.6 16.5 0.00 0.03 0.00 75 1014.8
20260904214039 57 285 10.4 17.4 0.00 0.03 0.00 75 1014.7
20260904213539 57 268 10.4 17.4 0.00 0.03 0.00 75 1014.7
20260904213101 57 275 10.4 14.8 0.00 0.03 0.00 77 1014.7
20260904212540 57 296 10.4 16.5 0.00 0.03 0.00 77 1014.6
20260904212039 57 275 7.8 16.5 0.00 0.03 0.00 77 1014.6
20260904211550 57 286 7.8 14.8 0.00 0.03 0.00 78 1014.9
20260904211037 57 298 7.0 13.9 0.00 0.03 0.00 79 1014.9
20260904210539 57 306 7.0 12.2 0.00 0.03 0.00 79 1014.9
20260904210105 57 273 4.3 12.2 0.00 0.03 0.00 79 1015.0
20260904205538 56 304 7.0 12.2 0.00 0.04 0.00 80 1015.0
20260904205038 56 271 7.0 10.4 0.00 0.04 0.00 79 1015.0
20260904204601 56 281 6.1 9.6 0.00 0.04 0.00 81 1015.0
20260904204043 56 293 6.1 13.9 0.00 0.04 0.00 80 1014.9
20260904203539 55 254 5.2 13.9 0.00 0.04 0.00 82 1014.9
20260904203101 55 293 7.0 13.9 0.00 0.04 0.00 83 1014.9
20260904202536 54 252 0.9 2.6 0.00 0.04 0.00 84 1014.8
20260904202038 54 36 0.0 3.5 0.00 0.04 0.00 83 1014.8
20260904201548 54 178 0.0 6.1 0.00 0.04 0.00 83 1014.7
20260904201036 54 44 0.9 6.1 0.00 0.04 0.00 83 1014.6
20260904200538 54 321 2.6 6.1 0.00 0.04 0.00 83 1014.4
20260904200057 54 273 2.6 6.1 0.00 0.04 0.00 84 1014.5
20260904195537 54 267 0.9 3.5 0.00 0.04 0.00 85 1014.5
20260904195039 53 265 0.0 7.8 0.00 0.04 0.00 85 1014.4
20260904194555 53 271 2.6 8.7 0.00 0.04 0.00 85 1014.3
20260904194039 52 285 5.2 11.3 0.00 0.04 0.00 85 1014.3
20260904193541 52 284 7.0 13.0 0.00 0.04 0.00 85 1014.2
20260904193103 52 296 7.8 13.0 0.00 0.04 0.00 85 1014.1
20260904192536 51 313 8.7 12.2 0.00 0.04 0.00 85 1013.9
20260904192041 51 278 6.1 11.3 0.00 0.04 0.00 85 1013.8
20260904191600 51 276 7.8 11.3 0.00 0.04 0.00 85 1013.7
20260904191037 51 311 7.0 11.3 0.00 0.04 0.00 85 1013.7
20260904190540 51 292 6.1 8.7 0.00 0.04 0.00 85 1013.7
20260904190101 51 279 5.2 8.7 0.00 0.04 0.00 85 1013.8
20260904185540 51 261 4.3 8.7 0.00 0.04 0.00 85 1013.8
20260904185041 51 294 3.5 8.7 0.00 0.04 0.00 85 1013.9
20260904184554 51 269 3.5 8.7 0.00 0.04 0.00 85 1013.8
20260904184039 51 290 4.3 8.7 0.00 0.04 0.00 86 1013.8
20260904183539 51 269 3.5 7.8 0.00 0.04 0.00 86 1013.7
20260904183101 51 264 3.5 7.8 0.00 0.04 0.00 86 1013.7
20260904182538 51 267 3.5 7.8 0.00 0.04 0.00 86 1013.6
20260904182039 51 266 2.6 6.1 0.00 0.04 0.00 85 1013.5
20260904181557 51 275 2.6 8.7 0.00 0.04 0.00 85 1013.5
20260904181039 51 271 2.6 8.7 0.00 0.04 0.00 85 1013.6
20260904180539 51 290 4.3 8.7 0.00 0.04 0.00 85 1013.3
20260904180103 51 271 2.6 9.6 0.00 0.04 0.00 85 1013.2
20260904175539 51 243 3.5 10.4 0.00 0.04 0.00 85 1013.1